Flag for Germany Weather for the Past 2 Weeks in Kirchheim unter Teck, Baden-Württemberg, Germany

Now
43 °F

Partly sunny.


Feels Like: 35 °F
Forecast: 29 / 43 °F
Wind: 15 mph from Southwest

Location: Stuttgart-Echterdingen

Current Time: Feb 11, 2016 at 3:07:34 PM

Latest Report: Feb 11, 2016 at 2:20 PM


Visibility: N/A

Pressure: 29.71 "Hg

Humidity: 61%

Dew point: 30 °F

Location of Kirchheim unter TeckLocation

Historic Weather in Kirchheim unter Teck — Graph

°F

Kirchheim unter Teck Temperature Yesterday

Maximum temperature yesterday: 39 °F (at 10:20 AM)
Minimum temperature yesterday: 34 °F (at 7:50 AM)
Average temperature yesterday: 37 °F

High & Low Weather Summary for the Past Weeks

 TemperatureHumidityPressure
High57 °F (Feb 6, 1:20 PM)100% (Jan 28, 7:20 PM)30.45 "Hg (Jan 28, 7:20 PM)
Low32 °F (Feb 6, 4:20 AM)44% (Feb 6, 1:20 PM)29.15 "Hg (Feb 9, 5:50 PM)
Average44 °F80%29.99 "Hg
* Reported Jan 27 1:20 PM — Feb 11 1:50 PM, Kirchheim unter Teck, Weather by CustomWeather, © 2016

Note: Actual official high and low records may vary slightly from our data, if they occured in-between our weather recording intervals... More about our weather records

Advertising

Kirchheim unter Teck Weather History for the Previous 24 Hours

 ConditionsComfort  
Time TempWeatherWind HumidityBarometerVisibility
1:50 PM
Thu, Feb 11
43 °FPartly sunny.12 mph57%29.71 "HgN/A
1:20 PM41 °FPartly sunny.14 mph66%29.74 "HgN/A
12:50 PM41 °FPartly sunny.13 mph66%29.74 "HgN/A
12:20 PM41 °FPartly sunny.10 mph66%29.74 "HgN/A
11:50 AM39 °FPartly sunny.13 mph75%29.74 "HgN/A
11:20 AM39 °FPartly sunny.13 mph75%29.74 "HgN/A
10:50 AM37 °FSprinkles. Broken clouds.10 mph81%29.74 "HgN/A
10:20 AM37 °FSprinkles. Broken clouds.14 mph81%29.74 "HgN/A
9:50 AM37 °FSnow flurries. Partly sunny.14 mph81%29.74 "HgN/A
9:20 AM37 °FPartly sunny.14 mph81%29.74 "HgN/A
8:50 AM37 °FPartly sunny.8 mph81%29.71 "HgN/A
8:20 AM37 °FPartly sunny.10 mph81%29.71 "HgN/A
7:50 AM37 °FPartly sunny.9 mph81%29.71 "HgN/A
7:20 AM36 °FPassing clouds.12 mph87%29.71 "HgN/A
6:50 AM36 °FPartly cloudy.10 mph87%29.71 "HgN/A
6:20 AM36 °FPassing clouds.10 mph87%29.71 "HgN/A
5:50 AM36 °FPassing clouds.10 mph87%29.71 "HgN/A
5:20 AM36 °FPartly cloudy.12 mph87%29.71 "HgN/A
4:50 AM36 °FPassing clouds.12 mph87%29.68 "HgN/A
4:20 AM36 °FLight snow. Passing clouds.10 mph87%29.68 "HgN/A
3:20 AM36 °FPassing clouds.9 mph87%29.68 "HgN/A
2:50 AM36 °FLight snow. Passing clouds.10 mph87%29.68 "HgN/A
2:20 AM36 °FLight snow. Passing clouds.10 mph87%29.68 "HgN/A
1:50 AM36 °FLight snow. Passing clouds.10 mph87%29.65 "HgN/A
1:20 AM36 °FLight snow. Partly cloudy.12 mph87%29.65 "HgN/A
12:50 AM36 °FLight snow. Partly cloudy.10 mph87%29.65 "HgN/A
12:20 AM36 °FLight snow. Passing clouds.10 mph87%29.62 "HgN/A
11:50 PM
Wed, Feb 10
37 °FLight snow. Passing clouds.12 mph75%29.62 "HgN/A
10:50 PM37 °FPassing clouds.13 mph75%29.62 "HgN/A
10:20 PM37 °FPartly cloudy.13 mph75%29.59 "HgN/A
9:50 PM37 °FPartly cloudy.13 mph75%29.59 "HgN/A
9:20 PM37 °FPassing clouds.14 mph75%29.59 "HgN/A
8:50 PM37 °FPassing clouds.15 mph75%29.59 "HgN/A
8:20 PM37 °FPassing clouds.17 mph75%29.56 "HgN/A
7:50 PM39 °FPassing clouds.15 mph70%29.56 "HgN/A
7:20 PM37 °FPassing clouds.15 mph75%29.56 "HgN/A
6:50 PM37 °FPartly cloudy.14 mph75%29.56 "HgN/A
6:20 PM37 °FPartly cloudy.15 mph81%29.53 "HgN/A
5:50 PM37 °FSnow flurries. Partly cloudy.12 mph81%29.53 "HgN/A
5:20 PM37 °FBroken clouds.10 mph81%29.53 "HgN/A
4:50 PM37 °FBroken clouds.12 mph81%29.50 "HgN/A
4:20 PM37 °FBroken clouds.13 mph87%29.50 "HgN/A
3:50 PM37 °FBroken clouds.12 mph87%29.50 "HgN/A
3:20 PM37 °FSnow flurries. Partly sunny.13 mph87%29.50 "HgN/A
Weather by CustomWeather, © 2016

See weather overviewHow to use our weather pages